Location: ????????
(54.9045°N, 39.1041°E)
Time: 03:06:10
(UTC+00:00)

Cosmos 2221 - Pass Details

Date: 14 April 2024
Orbit: 582 x 603 km, 82.5° (Epoch: 25 May)

Event Time Altitude Azimuth Distance (km) Brightness Sun altitude
Exits shadow 00:05:31 31° 253° (WSW) 1,036 3.2 -17.2°
Maximum altitude 00:06:42 38° 290° (WNW) 906 3.2 -17.1°
Drops below altitude 10° 00:10:43 10° 360° (N) 1,937 5.8 -16.7°
Sets 00:13:04 0° 8° (N) 2,847 6.9 -16.5°
